Newberry, MI

4:21 AM EDT on May 23, 2018 (GMT -0400)
Luce County

Weather History for KERY - August, 2013

Change the Weather History Date:

Friday, August 9, 2013

  Actual Average Record
Temperature  
Mean Temperature 60 °F -  
Max Temperature 70 °F 74 °F 94 °F (1949)
Min Temperature 50 °F 53 °F 35 °F (1972)
Degree Days  
Heating Degree Days 5    
Growing Degree Days 10 (Base 50)    
Moisture  
Dew Point 53 °F    
Average Humidity 78    
Maximum Humidity 100    
Minimum Humidity 45    
Precipitation  
Precipitation 0.05 in - - ()
Sea Level Pressure  
Sea Level Pressure 29.95 in    
Wind  
Wind Speed 9 mph (West)    
Max Wind Speed 22 mph    
Max Gust Speed 33 mph    
Visibility 10 miles    
Events Rain    
Averages and records for this station are not official NWS values.
T = Trace of Precipitation, MM = Missing Value Source: NWS Daily Summary

Daily Weather History Graph

Daily Weather History Graph

Search for Another Location

Airport or City:

Astronomy

Aug. 09, 2013 Rise Set
Actual Time 6:33 AM EDT 9:00 PM EDT
Civil Twilight 5:59 AM EDT 9:33 PM EDT
Nautical Twilight 5:17 AM EDT 10:15 PM EDT
Astronomical Twilight 4:29 AM EDT 11:03 PM EDT
Moon 9:32 AM EDT (8/9) 9:54 PM EDT (8/9)
Length of Visible Light 15h 34m
Length of Day
14h 26m
Waxing Crescent, 7% of the Moon is Illuminated
Aug 9
Waxing Crescent
Aug 14
First Quarter
Aug 20
Full
Aug 28
Last Quarter
Sep 5
New

Hourly Weather History & Observations

Time (EDT) Temp. Dew Point Humidity Pressure Visibility Wind Dir Wind Speed Gust Speed Precip Events Conditions
12:15 AM 58.8 °F 56.1 °F 91% 29.97 in 10.0 mi North - - N/A   Overcast
12:35 AM 59.4 °F 56.7 °F 91% 29.97 in 10.0 mi North - - N/A   Overcast
12:54 AM 59.4 °F 57.0 °F 92% 29.98 in 7.0 mi SW 10.4 mph - 0.02 in Rain Rain
1:14 AM 58.8 °F 57.0 °F 94% 29.97 in 10.0 mi SSW 10.4 mph - 0.01 in Rain Light Rain
1:35 AM 58.6 °F 56.5 °F 93% 29.96 in 10.0 mi SSW 11.5 mph 18.4 mph 0.01 in Rain Rain
1:55 AM 58.3 °F 56.3 °F 93% 29.96 in 10.0 mi SSW 10.4 mph 19.6 mph 0.01 in   Overcast
2:14 AM 58.1 °F 55.9 °F 93% 29.96 in 10.0 mi SSW 8.1 mph 17.3 mph 0.01 in Rain Light Rain
2:35 AM 58.1 °F 55.9 °F 93% 29.95 in 10.0 mi South 6.9 mph - 0.01 in Rain Light Rain
2:54 AM 57.9 °F 55.8 °F 92% 29.95 in 10.0 mi SSW 8.1 mph - 0.01 in   Overcast
3:15 AM 57.6 °F 55.8 °F 94% 29.95 in 10.0 mi SSW 5.8 mph - N/A   Overcast
3:35 AM 57.7 °F 56.1 °F 94% 29.95 in 10.0 mi SSW 6.9 mph - N/A   Overcast
3:54 AM 57.7 °F 55.9 °F 94% 29.94 in 10.0 mi SSW 5.8 mph - N/A   Overcast
4:15 AM 58.1 °F 56.3 °F 94% 29.94 in 10.0 mi SSW 8.1 mph - N/A   Overcast
4:34 AM 58.3 °F 56.3 °F 93% 29.94 in 10.0 mi SW 10.4 mph - N/A Rain Light Rain
4:55 AM 58.5 °F 56.7 °F 94% 29.94 in 10.0 mi SW 8.1 mph - 0.01 in Rain Light Rain
5:15 AM 58.1 °F 56.5 °F 94% 29.92 in 10.0 mi SSW 5.8 mph - N/A   Overcast
5:34 AM 57.0 °F 55.9 °F 96% 29.92 in 10.0 mi SSW 3.5 mph - N/A   Scattered Clouds
5:55 AM 55.4 °F 54.9 °F 98% 29.92 in 10.0 mi SW 4.6 mph - N/A   Scattered Clouds
6:15 AM 55.8 °F 55.4 °F 99% 29.92 in 7.0 mi SSW 6.9 mph - N/A   Mostly Cloudy
6:34 AM 57.0 °F 56.7 °F 99% 29.93 in 10.0 mi SW 4.6 mph - N/A   Overcast
6:55 AM 57.2 °F 56.7 °F 98% 29.92 in 10.0 mi SSW 5.8 mph - N/A   Overcast
7:15 AM 58.1 °F 58.1 °F 100% 29.92 in 10.0 mi SSW 5.8 mph - N/A   Overcast
7:34 AM 59.0 °F 58.3 °F 97% 29.92 in 10.0 mi SSW 6.9 mph - N/A   Overcast
7:54 AM 59.4 °F 58.5 °F 97% 29.92 in 10.0 mi SSW 8.1 mph - N/A   Overcast
8:15 AM 59.9 °F 58.8 °F 96% 29.91 in 10.0 mi SSW 8.1 mph - N/A   Overcast
8:35 AM 60.1 °F 58.8 °F 96% 29.92 in 10.0 mi SW 8.1 mph - N/A   Overcast
8:54 AM 60.4 °F 59.2 °F 96% 29.91 in 10.0 mi North - - N/A   Overcast
9:15 AM 61.2 °F 59.2 °F 93% 29.91 in 10.0 mi North - - N/A   Overcast
9:35 AM 61.7 °F 60.1 °F 94% 29.91 in 10.0 mi North - - N/A   Overcast
9:42 AM 62.8 °F 60.4 °F 92% 29.91 in 10.0 mi North - - N/A   Mostly Cloudy
9:58 AM 63.5 °F 59.2 °F 86% 29.90 in 10.0 mi North - - N/A   Mostly Cloudy
10:55 AM 65.5 °F 58.1 °F 77% 29.90 in 10.0 mi North - - N/A   Mostly Cloudy
11:15 AM 64.9 °F 58.1 °F 78% 29.90 in 10.0 mi North - - N/A   Overcast
11:35 AM 64.9 °F 58.3 °F 79% 29.89 in 10.0 mi North - - N/A   Overcast
11:54 AM 65.1 °F 56.3 °F 73% 29.89 in 10.0 mi North - - N/A   Overcast
12:15 PM 65.7 °F 56.5 °F 72% 29.89 in 10.0 mi North - - N/A   Mostly Cloudy
12:35 PM 68.2 °F 57.9 °F 70% 29.88 in 10.0 mi North - - N/A   Scattered Clouds
12:54 PM 69.1 °F 57.2 °F 66% 29.88 in 10.0 mi North - - N/A   Mostly Cloudy
1:15 PM 68.4 °F 55.8 °F 64% 29.88 in 10.0 mi West 12.7 mph - N/A   Overcast
1:35 PM 68.4 °F 52.2 °F 56% 29.89 in 10.0 mi West 15.0 mph 28.8 mph N/A   Scattered Clouds
1:54 PM 69.6 °F 51.3 °F 52% 29.89 in 10.0 mi WNW 12.7 mph 28.8 mph N/A   Scattered Clouds
2:14 PM 70.0 °F 50.9 °F 51% 29.89 in 10.0 mi WNW 15.0 mph 32.2 mph N/A   Scattered Clouds
2:35 PM 67.5 °F 49.8 °F 53% 29.90 in 10.0 mi WNW 19.6 mph 27.6 mph N/A   Mostly Cloudy
2:55 PM 68.4 °F 51.4 °F 55% 29.90 in 10.0 mi WNW 12.7 mph 32.2 mph N/A   Mostly Cloudy
3:15 PM 68.9 °F 49.1 °F 49% 29.90 in 10.0 mi WNW 13.8 mph 33.4 mph N/A   Mostly Cloudy
3:34 PM 69.1 °F 46.6 °F 45% 29.90 in 10.0 mi West 17.3 mph 32.2 mph N/A   Scattered Clouds
3:55 PM 68.9 °F 47.3 °F 46% 29.90 in 10.0 mi West 21.9 mph 32.2 mph N/A   Scattered Clouds
4:15 PM 69.1 °F 49.6 °F 50% 29.91 in 10.0 mi NW 17.3 mph - N/A   Mostly Cloudy
4:34 PM 67.8 °F 49.6 °F 52% 29.92 in 10.0 mi WNW 18.4 mph - N/A   Overcast
4:55 PM 65.3 °F 51.4 °F 61% 29.94 in 10.0 mi NW 12.7 mph - N/A   Mostly Cloudy
5:15 PM 64.0 °F 50.5 °F 61% 29.95 in 10.0 mi NW 12.7 mph 24.2 mph N/A   Mostly Cloudy
5:34 PM 62.8 °F 49.5 °F 62% 29.96 in 10.0 mi WNW 17.3 mph 28.8 mph N/A   Mostly Cloudy
5:55 PM 62.6 °F 49.5 °F 62% 29.96 in 10.0 mi WNW 12.7 mph 23.0 mph N/A   Scattered Clouds
6:14 PM 62.2 °F 48.9 °F 62% 29.97 in 10.0 mi WNW 15.0 mph 20.7 mph N/A   Scattered Clouds
6:35 PM 61.3 °F 48.9 °F 64% 29.98 in 10.0 mi NW 9.2 mph 25.3 mph N/A   Mostly Cloudy
6:55 PM 60.3 °F 48.7 °F 66% 29.98 in 10.0 mi NW 12.7 mph 17.3 mph N/A   Scattered Clouds
7:14 PM 59.4 °F 48.2 °F 67% 29.99 in 10.0 mi NW 10.4 mph 20.7 mph N/A   Scattered Clouds
7:34 PM 59.0 °F 46.6 °F 63% 29.99 in 10.0 mi NW 11.5 mph 21.9 mph N/A   Scattered Clouds
7:54 PM 58.1 °F 46.6 °F 65% 30.00 in 10.0 mi NW 9.2 mph 16.1 mph N/A   Clear
8:15 PM 57.0 °F 47.5 °F 70% 30.00 in 10.0 mi NW 3.5 mph - N/A   Clear
8:35 PM 56.3 °F 46.4 °F 69% 30.01 in 10.0 mi NW 6.9 mph - N/A   Clear
8:54 PM 55.2 °F 45.9 °F 71% 30.01 in 10.0 mi WNW 8.1 mph - N/A   Clear
9:15 PM 53.2 °F 46.4 °F 78% 30.02 in 10.0 mi West 3.5 mph - N/A   Clear
9:34 PM 52.5 °F 46.0 °F 79% 30.02 in 10.0 mi West 4.6 mph - N/A   Clear
9:55 PM 50.2 °F 46.4 °F 87% 30.03 in 10.0 mi West 4.6 mph - N/A   Clear
10:15 PM 50.9 °F 45.7 °F 82% 30.03 in 10.0 mi WNW 4.6 mph - N/A   Clear
10:35 PM 53.1 °F 43.7 °F 71% 30.03 in 10.0 mi WNW 6.9 mph - N/A   Clear
10:54 PM 52.7 °F 43.7 °F 71% 30.03 in 10.0 mi NW 4.6 mph - N/A   Clear
11:15 PM 51.8 °F 43.9 °F 74% 30.03 in 10.0 mi NW 4.6 mph - N/A   Clear
11:35 PM 51.8 °F 43.7 °F 74% 30.04 in 10.0 mi WNW 4.6 mph - N/A   Clear
11:55 PM 52.3 °F 43.3 °F 71% 30.04 in 10.0 mi NW 4.6 mph - N/A   Clear